Hourly Weather Roundup
Issued by NWS Central Illinois

Home | Current Version | Previous Version | Text Only | Print | Product List | Glossary On
Versions: 1 2 3 4 5 6 7 8 9 10 11 12 13 14 15 16 17 18 19 20 21 22 23 24 25 26 27 28 29 30 31 32 33 34 35 36 37 38 39 40 41 42 43 44 45 46 47 48 49 50
000
NZUS43 KILX 281410
HWRILX

AREA WEATHER ROUNDUP
NATIONAL WEATHER SERVICE, LINCOLN IL
800 AM CST WED JAN 28 2015


CITY           SKY/WX    TMP DP  RH WIND       PRES   REMARKS
BLOOMINGTON    CLEAR     25  19  77 S14       30.27R WCI  13
CHAMPAIGN      PTCLDY    23  17  78 SE10      30.28F WCI  12
DECATUR        CLEAR     25  18  74 SE10      30.28R WCI  15
FLORA          CLEAR     27  24  89 SE8       30.32S WCI  18
GALESBURG      CLEAR     26  19  77 SE9       30.19F WCI  16
JACKSONVILLE   CLEAR     30  26  84 SE14      30.21F WCI  19
LACON          CLEAR     24  18  78 SE9G17    30.25F WCI  14
LAWRENCEVILLE  CLEAR     26  20  77 SE8       30.34S HAZE    WCI  18
LITCHFIELD     CLEAR     27  23  87 SE13      30.26S FOG     WCI  16
$$


CITY           SKY/WX    TMP DP  RH WIND       PRES   REMARKS
LINCOLN        CLEAR     26  21  79 SE9       30.28R WCI  17
MACOMB         CLEAR     27  24  90 SE14      30.21F WCI  15
MATTOON        CLEAR     24  17  74 SE13      30.28F WCI  12
MT CARMEL AP   FAIR      30  23  74 SE7       30.33F WCI  23
OLNEY-NOBLE AP CLEAR     27  21  80 CALM      30.33R
PARIS          PTCLDY    23  19  86 N6        30.32F WCI  16
PEORIA         CLEAR     26  18  71 SE9       30.25S WCI  17
PONTIAC        CLEAR     25  20  80 SE9       30.28F WCI  15
RANTOUL        CLEAR     24  20  83 SE8       30.29F WCI  15
ROBINSON       CLEAR     24  20  85 SE7       30.35S WCI  16
SPRINGFIELD    CLEAR     27  21  78 SE13      30.26R WCI  16
TAYLORVILLE    CLEAR     27  23  86 SE10      30.28R WCI  17
$$

...REGIONAL REPORTS...


CITY           SKY/WX    TMP DP  RH WIND       PRES   REMARKS
CHICAGO O`HARE MOCLDY    22  16  78 S7        30.28S WCI  13
KANKAKEE       PTCLDY    21  17  86 SE6       30.31F WCI  13
MOLINE         PTCLDY    25  21  85 SE10      30.19F FOG     WCI  15
MOUNT VERNON   CLEAR     27  21  80 S5        30.32R WCI  21
PITTSFIELD     PTCLDY    29  27  92 SE14      30.19F FOG     WCI  19
QUINCY         CLEAR     28  25  88 SE13      30.14F FOG     WCI  17
ROCKFORD       MOCLDY    22  16  78 SE12      30.25F WCI  10
$$


CITY           SKY/WX    TMP DP  RH WIND       PRES   REMARKS
BURLINGTON     PTCLDY    27  24  89 SE13      30.15F WCI  16
CEDAR RAPIDS   CLOUDY    29  27  92 SE14G22   30.11F FOG     WCI  18
DES MOINES     CLOUDY    31  26  82 SE13      30.00F HAZE    WCI  21
KIRKSVILLE     CLEAR     30  28  92 SE16      30.07S FOG     WCI  19
OTTUMWA        PTCLDY    28  26  92 SE16      30.06F FOG     WCI  16
ST LOUIS       MOCLDY    31  27  85 SE13      30.23F FOG     WCI  21
$$


CITY           SKY/WX    TMP DP  RH WIND       PRES   REMARKS
TERRE HAUTE    CLEAR     22  16  78 SE7       30.33S WCI  13
EVANSVILLE     CLEAR     29  19  66 SE6       30.35R WCI  23
INDIANAPOLIS   PTCLDY    18  14  84 SE8       30.34R WCI   8
LAFAYETTE      PTCLDY    20  16  84 CALM      30.32S
MADISON        CLOUDY    22  18  85 S14       30.20F WCI   9
MILWAUKEE      MOCLDY    24  18  77 S6        30.25F WCI  17
$$




USA.gov is the U.S. government's official web portal to all federal, state and local government web resources and services.